Location: Central Coast NSW, Australia
(33.2407°S, 151.4316°E)
Time: 23:12:46
(UTC+11:00)

ISS - Pass Details

Date: 31 January 2019
Orbit: 403 x 411 km, 51.6° (Epoch: 21 February)

Event Time Altitude Azimuth Distance (km) Brightness Sun altitude
Exits shadow 04:09:44 45° 155° (SSE) 574 -2.8 -23.1°
Drops below altitude 10° 04:12:13 10° 138° (SE) 1,493 0.1 -22.7°
Sets 04:14:20 0° 136° (SE) 2,359 1.6 -22.4°
